| time (UTC) | temp F | wind direction | speed MPH | gust MPH | rain 1hr in | rain 24hr in | rain mn in | humidity % | barometer mb |
| 20260903145614 | 53 | 252 | 2.0 | 2.0 | 0.00 | 0.00 | 0.00 | 72 | 1011.6 |
| 20260903145109 | 53 | 251 | 2.0 | 2.0 | 0.00 | 0.00 | 0.00 | 73 | 1011.4 |
| 20260903144608 | 53 | 264 | 0.0 | 3.0 | 0.00 | 0.00 | 0.00 | 73 | 1011.5 |
| 20260903144105 | 53 | 273 | 0.0 | 0.0 | 0.00 | 0.00 | 0.00 | 74 | 1011.4 |
| 20260903143601 | 53 | 277 | 0.0 | 2.0 | 0.00 | 0.00 | 0.00 | 74 | 1011.4 |
| 20260903143056 | 52 | 279 | 1.0 | 3.0 | 0.00 | 0.00 | 0.00 | 74 | 1011.6 |
| 20260903142551 | 52 | 262 | 2.0 | 3.0 | 0.00 | 0.00 | 0.00 | 75 | 1011.6 |
| 20260903142048 | 51 | 278 | 1.0 | 3.0 | 0.00 | 0.00 | 0.00 | 76 | 1011.6 |
| 20260903141543 | 51 | 269 | 2.0 | 4.0 | 0.00 | 0.00 | 0.00 | 76 | 1011.4 |
| 20260903141038 | 50 | 269 | 2.0 | 2.0 | 0.00 | 0.00 | 0.00 | 78 | 1011.6 |
| 20260903140534 | 50 | 276 | 1.0 | 3.0 | 0.00 | 0.00 | 0.00 | 78 | 1011.4 |
| 20260903140035 | 49 | 287 | 1.0 | 2.0 | 0.00 | 0.00 | 0.00 | 78 | 1011.6 |
| 20260903135530 | 49 | 304 | 1.0 | 3.0 | 0.00 | 0.00 | 0.00 | 78 | 1011.2 |
| 20260903135025 | 49 | 341 | 2.0 | 2.0 | 0.00 | 0.00 | 0.00 | 77 | 1011.2 |
| 20260903134524 | 48 | 340 | 2.0 | 3.0 | 0.00 | 0.00 | 0.00 | 77 | 1011.4 |
| 20260903134020 | 48 | 310 | 0.0 | 0.0 | 0.00 | 0.00 | 0.00 | 78 | 1011.2 |
| 20260903133518 | 48 | 322 | 0.0 | 0.0 | 0.00 | 0.00 | 0.00 | 79 | 1011.1 |
| 20260903133013 | 47 | 324 | 0.0 | 0.0 | 0.00 | 0.00 | 0.00 | 80 | 1011.2 |
| 20260903132508 | 47 | 322 | 1.0 | 1.0 | 0.00 | 0.00 | 0.00 | 78 | 1011.0 |
| 20260903132003 | 47 | 332 | 0.0 | 0.0 | 0.00 | 0.00 | 0.00 | 78 | 1010.9 |
| 20260903131458 | 47 | 42 | 0.0 | 0.0 | 0.00 | 0.00 | 0.00 | 79 | 1010.8 |
| 20260903130956 | 46 | 50 | 0.0 | 0.0 | 0.00 | 0.00 | 0.00 | 80 | 1010.6 |
| 20260903130452 | 45 | 47 | 0.0 | 0.0 | 0.00 | 0.00 | 0.00 | 83 | 1010.8 |
| 20260903125951 | 46 | 54 | 0.0 | 0.0 | 0.00 | 0.00 | 0.00 | 81 | 1010.7 |
| 20260903125450 | 46 | 66 | 0.0 | 0.0 | 0.00 | 0.00 | 0.00 | 80 | 1010.8 |
| 20260903124951 | 46 | 80 | 2.0 | 2.0 | 0.00 | 0.00 | 0.00 | 80 | 1010.7 |
| 20260903124446 | 47 | 74 | 2.0 | 3.0 | 0.00 | 0.00 | 0.00 | 79 | 1010.5 |
| 20260903123945 | 47 | 83 | 2.0 | 2.0 | 0.00 | 0.00 | 0.00 | 78 | 1010.6 |
| 20260903123439 | 48 | 108 | 2.0 | 4.0 | 0.00 | 0.00 | 0.00 | 76 | 1010.5 |
| 20260903122939 | 49 | 258 | 0.0 | 2.0 | 0.00 | 0.00 | 0.00 | 73 | 1010.4 |
| 20260903122439 | 48 | 260 | 2.0 | 2.0 | 0.00 | 0.00 | 0.00 | 75 | 1010.0 |
| 20260903121938 | 48 | 281 | 0.0 | 0.0 | 0.00 | 0.00 | 0.00 | 75 | 1010.2 |
| 20260903121438 | 48 | 281 | 0.0 | 0.0 | 0.00 | 0.00 | 0.00 | 74 | 1010.2 |
| 20260903120934 | 49 | 299 | 0.0 | 0.0 | 0.00 | 0.00 | 0.00 | 74 | 1010.4 |
| 20260903120433 | 49 | 279 | 0.0 | 0.0 | 0.00 | 0.00 | 0.00 | 74 | 1010.3 |
| 20260903115931 | 50 | 280 | 0.0 | 2.0 | 0.00 | 0.00 | 0.00 | 73 | 1010.3 |
| 20260903115431 | 51 | 263 | 1.0 | 2.0 | 0.00 | 0.00 | 0.00 | 70 | 1010.3 |
| 20260903114927 | 51 | 234 | 3.0 | 3.0 | 0.00 | 0.00 | 0.00 | 68 | 1010.4 |
| 20260903114422 | 51 | 251 | 3.0 | 3.0 | 0.00 | 0.00 | 0.00 | 68 | 1010.5 |
| 20260903113918 | 51 | 272 | 3.0 | 3.0 | 0.00 | 0.00 | 0.00 | 69 | 1010.4 |
| 20260903113413 | 52 | 225 | 3.0 | 3.0 | 0.00 | 0.00 | 0.00 | 66 | 1010.4 |
| 20260903112909 | 52 | 257 | 0.0 | 0.0 | 0.00 | 0.00 | 0.00 | 66 | 1010.6 |
| 20260903112404 | 52 | 275 | 2.0 | 2.0 | 0.00 | 0.00 | 0.00 | 65 | 1010.4 |
| 20260903111903 | 51 | 250 | 0.0 | 0.0 | 0.00 | 0.00 | 0.00 | 69 | 1010.3 |
| 20260903111403 | 51 | 255 | 2.0 | 2.0 | 0.00 | 0.00 | 0.00 | 69 | 1010.4 |
| 20260903110859 | 49 | 307 | 2.0 | 2.0 | 0.00 | 0.00 | 0.00 | 73 | 1010.4 |
| 20260903110354 | 51 | 292 | 2.0 | 3.0 | 0.00 | 0.00 | 0.00 | 69 | 1010.6 |
| 20260903105849 | 49 | 233 | 0.0 | 0.0 | 0.00 | 0.00 | 0.00 | 71 | 1010.4 |
| 20260903105345 | 48 | 182 | 0.0 | 2.0 | 0.00 | 0.00 | 0.00 | 73 | 1010.5 |
| 20260903104844 | 49 | 300 | 0.0 | 0.0 | 0.00 | 0.00 | 0.00 | 73 | 1010.6 |
| 20260903104339 | 49 | 339 | 2.0 | 3.0 | 0.00 | 0.00 | 0.00 | 72 | 1010.6 |
| 20260903103836 | 49 | 231 | 0.0 | 0.0 | 0.00 | 0.00 | 0.00 | 72 | 1010.3 |
| 20260903103332 | 50 | 228 | 1.0 | 2.0 | 0.00 | 0.00 | 0.00 | 71 | 1010.3 |
| 20260903102827 | 50 | 224 | 1.0 | 1.0 | 0.00 | 0.00 | 0.00 | 70 | 1010.4 |
| 20260903102327 | 51 | 220 | 1.0 | 2.0 | 0.00 | 0.00 | 0.00 | 68 | 1010.2 |
| 20260903101827 | 52 | 221 | 3.0 | 4.0 | 0.00 | 0.00 | 0.00 | 67 | 1010.2 |
| 20260903101322 | 52 | 239 | 4.0 | 6.0 | 0.00 | 0.00 | 0.00 | 65 | 1010.2 |
| 20260903100818 | 53 | 237 | 3.0 | 3.0 | 0.00 | 0.00 | 0.00 | 64 | 1010.3 |
| 20260903100317 | 52 | 252 | 2.0 | 4.0 | 0.00 | 0.00 | 0.00 | 66 | 1010.5 |
| 20260903095815 | 50 | 285 | 3.0 | 4.0 | 0.00 | 0.00 | 0.00 | 69 | 1010.2 |
| 20260903095309 | 49 | 341 | 4.0 | 4.0 | 0.00 | 0.00 | 0.00 | 71 | 1010.2 |
| 20260903094804 | 49 | 333 | 2.0 | 3.0 | 0.00 | 0.00 | 0.00 | 71 | 1009.9 |
| 20260903094259 | 51 | 301 | 1.0 | 2.0 | 0.00 | 0.00 | 0.00 | 67 | 1009.8 |
| 20260903093754 | 51 | 261 | 0.0 | 2.0 | 0.00 | 0.00 | 0.00 | 68 | 1009.7 |
| 20260903093250 | 50 | 251 | 1.0 | 1.0 | 0.00 | 0.00 | 0.00 | 68 | 1009.8 |
| 20260903092749 | 50 | 242 | 0.0 | 1.0 | 0.00 | 0.00 | 0.00 | 69 | 1009.9 |
| 20260903092244 | 50 | 189 | 4.0 | 4.0 | 0.00 | 0.00 | 0.00 | 69 | 1009.9 |
| 20260903091743 | 50 | 181 | 3.0 | 4.0 | 0.00 | 0.00 | 0.00 | 71 | 1009.7 |
| 20260903091238 | 50 | 231 | 0.0 | 1.0 | 0.00 | 0.00 | 0.00 | 70 | 1010.0 |
| 20260903090733 | 51 | 245 | 2.0 | 3.0 | 0.00 | 0.00 | 0.00 | 68 | 1009.9 |
| 20260903090232 | 51 | 247 | 3.0 | 7.0 | 0.00 | 0.00 | 0.00 | 68 | 1009.9 |
| 20260903085731 | 49 | 242 | 3.0 | 7.0 | 0.00 | 0.00 | 0.00 | 71 | 1009.8 |
| 20260903085226 | 49 | 238 | 0.0 | 0.0 | 0.00 | 0.00 | 0.00 | 72 | 1009.9 |
| 20260903084724 | 49 | 216 | 0.0 | 0.0 | 0.00 | 0.00 | 0.00 | 71 | 1009.8 |
| 20260903084219 | 49 | 196 | 0.0 | 2.0 | 0.00 | 0.00 | 0.00 | 71 | 1010.0 |
| 20260903083715 | 50 | 267 | 0.0 | 2.0 | 0.00 | 0.00 | 0.00 | 70 | 1009.8 |
| 20260903083215 | 50 | 269 | 1.0 | 2.0 | 0.00 | 0.00 | 0.00 | 70 | 1009.8 |
| 20260903082714 | 50 | 290 | 0.0 | 0.0 | 0.00 | 0.00 | 0.00 | 70 | 1009.7 |
| 20260903082210 | 51 | 269 | 0.0 | 2.0 | 0.00 | 0.00 | 0.00 | 70 | 1009.7 |
| 20260903081710 | 50 | 261 | 0.0 | 0.0 | 0.00 | 0.00 | 0.00 | 69 | 1009.8 |
| 20260903081206 | 50 | 241 | 0.0 | 0.0 | 0.00 | 0.00 | 0.00 | 70 | 1010.0 |
| 20260903080702 | 50 | 220 | 0.0 | 0.0 | 0.00 | 0.00 | 0.00 | 70 | 1009.9 |
| 20260903080200 | 51 | 238 | 2.0 | 3.0 | 0.00 | 0.00 | 0.00 | 70 | 1009.8 |
| 20260903075658 | 50 | 238 | 4.0 | 6.0 | 0.00 | 0.00 | 0.00 | 70 | 1010.2 |
| 20260903075154 | 50 | 229 | 2.0 | 3.0 | 0.00 | 0.00 | 0.00 | 70 | 1009.9 |
| 20260903074653 | 50 | 239 | 0.0 | 3.0 | 0.00 | 0.00 | 0.00 | 70 | 1009.9 |
| 20260903074148 | 50 | 259 | 0.0 | 2.0 | 0.00 | 0.00 | 0.00 | 71 | 1009.9 |
| 20260903073643 | 51 | 273 | 0.0 | 2.0 | 0.00 | 0.00 | 0.00 | 71 | 1010.0 |
| 20260903073138 | 51 | 268 | 0.0 | 0.0 | 0.00 | 0.00 | 0.00 | 70 | 1010.0 |
| 20260903072634 | 52 | 265 | 0.0 | 0.0 | 0.00 | 0.00 | 0.00 | 69 | 1010.2 |
| 20260903072131 | 51 | 267 | 0.0 | 0.0 | 0.00 | 0.00 | 0.00 | 68 | 1010.2 |
| 20260903071627 | 52 | 270 | 0.0 | 0.0 | 0.00 | 0.00 | 0.00 | 68 | 1010.2 |
| 20260903071122 | 51 | 263 | 0.0 | 0.0 | 0.00 | 0.00 | 0.00 | 67 | 1010.3 |
| 20260903070622 | 50 | 314 | 2.0 | 3.0 | 0.00 | 0.00 | 0.00 | 72 | 1010.0 |
| 20260903070118 | 50 | 252 | 0.0 | 0.0 | 0.00 | 0.00 | 0.00 | 72 | 1010.2 |
| 20260903065617 | 49 | 244 | 1.0 | 4.0 | 0.00 | 0.00 | 0.00 | 75 | 1010.3 |
| 20260903065112 | 48 | 220 | 0.0 | 0.0 | 0.00 | 0.00 | 0.00 | 81 | 1009.9 |
| 20260903064612 | 48 | 192 | 0.0 | 3.0 | 0.00 | 0.00 | 0.00 | 80 | 1010.3 |
| 20260903064107 | 48 | 208 | 0.0 | 0.0 | 0.00 | 0.00 | 0.00 | 78 | 1010.2 |
| 20260903063602 | 49 | 190 | 0.0 | 2.0 | 0.00 | 0.00 | 0.00 | 75 | 1010.0 |
| 20260903063058 | 50 | 110 | 1.0 | 2.0 | 0.00 | 0.00 | 0.00 | 74 | 1010.2 |
| 20260903062553 | 50 | 79 | 0.0 | 0.0 | 0.00 | 0.00 | 0.00 | 74 | 1009.8 |
| 20260903062048 | 51 | 91 | 0.0 | 2.0 | 0.00 | 0.00 | 0.00 | 71 | 1010.0 |
| 20260903061544 | 50 | 205 | 0.0 | 0.0 | 0.00 | 0.00 | 0.00 | 69 | 1009.8 |
| 20260903061043 | 50 | 193 | 0.0 | 0.0 | 0.00 | 0.00 | 0.00 | 72 | 1009.8 |
| 20260903060543 | 49 | 123 | 2.0 | 4.0 | 0.00 | 0.00 | 0.00 | 75 | 1009.7 |
| 20260903060038 | 49 | 113 | 4.0 | 4.0 | 0.00 | 0.00 | 0.00 | 75 | 1009.7 |
| 20260903055536 | 50 | 106 | 1.0 | 3.0 | 0.00 | 0.07 | 0.07 | 73 | 1009.6 |
| 20260903055034 | 51 | 128 | 1.0 | 2.0 | 0.00 | 0.07 | 0.07 | 69 | 1009.9 |
| 20260903054530 | 51 | 193 | 0.0 | 0.0 | 0.00 | 0.07 | 0.07 | 69 | 1009.9 |
| 20260903054026 | 50 | 203 | 0.0 | 0.0 | 0.00 | 0.07 | 0.07 | 72 | 1010.4 |
| 20260903053525 | 51 | 212 | 0.0 | 0.0 | 0.00 | 0.07 | 0.07 | 74 | 1010.5 |
| 20260903053022 | 51 | 229 | 0.0 | 0.0 | 0.00 | 0.07 | 0.07 | 73 | 1010.5 |
| 20260903052518 | 51 | 215 | 0.0 | 0.0 | 0.00 | 0.07 | 0.07 | 72 | 1010.7 |
| 20260903052014 | 51 | 167 | 0.0 | 0.0 | 0.00 | 0.07 | 0.07 | 71 | 1010.6 |
| 20260903051514 | 52 | 120 | 2.0 | 3.0 | 0.00 | 0.07 | 0.07 | 72 | 1010.9 |
| 20260903051010 | 53 | 196 | 0.0 | 0.0 | 0.00 | 0.07 | 0.07 | 69 | 1011.0 |
| 20260903050508 | 53 | 238 | 0.0 | 1.0 | 0.00 | 0.07 | 0.07 | 68 | 1010.8 |
| 20260903050003 | 52 | 279 | 0.0 | 2.0 | 0.00 | 0.07 | 0.07 | 70 | 1010.8 |
| 20260903045458 | 51 | 274 | 2.0 | 3.0 | 0.00 | 0.07 | 0.07 | 73 | 1010.7 |
| 20260903044955 | 52 | 282 | 0.0 | 0.0 | 0.00 | 0.07 | 0.07 | 74 | 1010.7 |
| 20260903044450 | 51 | 277 | 1.0 | 1.0 | 0.00 | 0.07 | 0.07 | 75 | 1010.7 |
| 20260903043946 | 52 | 263 | 0.0 | 0.0 | 0.00 | 0.07 | 0.07 | 74 | 1010.8 |
| 20260903043442 | 53 | 264 | 0.0 | 0.0 | 0.00 | 0.07 | 0.07 | 72 | 1010.7 |
| 20260903042940 | 54 | 275 | 1.0 | 3.0 | 0.00 | 0.07 | 0.07 | 69 | 1011.1 |
| 20260903042436 | 54 | 258 | 0.0 | 3.0 | 0.00 | 0.07 | 0.07 | 68 | 1011.1 |
| 20260903041931 | 53 | 256 | 2.0 | 4.0 | 0.00 | 0.07 | 0.07 | 71 | 1011.1 |
| 20260903041428 | 53 | 231 | 3.0 | 3.0 | 0.00 | 0.07 | 0.07 | 71 | 1011.1 |
| 20260903040923 | 54 | 255 | 0.0 | 1.0 | 0.00 | 0.07 | 0.07 | 72 | 1011.0 |
| 20260903040422 | 54 | 243 | 0.0 | 0.0 | 0.00 | 0.07 | 0.07 | 70 | 1010.9 |
| 20260903035918 | 53 | 236 | 0.0 | 0.0 | 0.00 | 0.07 | 0.07 | 72 | 1011.0 |
| 20260903035414 | 54 | 226 | 0.0 | 0.0 | 0.00 | 0.07 | 0.07 | 71 | 1011.0 |
| 20260903034914 | 54 | 216 | 0.0 | 0.0 | 0.00 | 0.07 | 0.07 | 71 | 1010.9 |
| 20260903034409 | 53 | 217 | 0.0 | 0.0 | 0.00 | 0.07 | 0.07 | 72 | 1011.0 |
| 20260903033904 | 54 | 208 | 0.0 | 0.0 | 0.00 | 0.07 | 0.07 | 74 | 1010.8 |
| 20260903033359 | 55 | 211 | 0.0 | 0.0 | 0.00 | 0.07 | 0.07 | 72 | 1011.0 |
| 20260903032854 | 56 | 191 | 0.0 | 0.0 | 0.00 | 0.07 | 0.07 | 70 | 1010.9 |
| 20260903032350 | 56 | 279 | 0.0 | 0.0 | 0.00 | 0.07 | 0.07 | 71 | 1010.8 |
| 20260903031845 | 56 | 276 | 0.0 | 0.0 | 0.00 | 0.07 | 0.07 | 71 | 1011.0 |
| 20260903031344 | 56 | 278 | 0.0 | 1.0 | 0.00 | 0.07 | 0.07 | 70 | 1011.0 |
| 20260903030840 | 56 | 289 | 0.0 | 0.0 | 0.00 | 0.07 | 0.07 | 70 | 1011.2 |
| 20260903030336 | 56 | 272 | 0.0 | 2.0 | 0.00 | 0.07 | 0.07 | 71 | 1011.0 |
| 20260903025832 | 56 | 314 | 1.0 | 3.0 | 0.00 | 0.07 | 0.07 | 72 | 1010.7 |
| 20260903025327 | 55 | 230 | 0.0 | 0.0 | 0.00 | 0.07 | 0.07 | 74 | 1011.0 |
| 20260903024826 | 57 | 231 | 1.0 | 2.0 | 0.00 | 0.07 | 0.07 | 71 | 1011.0 |
| 20260903024326 | 58 | 274 | 0.0 | 0.0 | 0.00 | 0.07 | 0.07 | 67 | 1010.8 |
| 20260903023821 | 57 | 310 | 2.0 | 2.0 | 0.00 | 0.07 | 0.07 | 67 | 1010.6 |
| 20260903023317 | 57 | 303 | 0.0 | 0.0 | 0.00 | 0.07 | 0.07 | 68 | 1010.5 |
| 20260903022812 | 57 | 262 | 0.0 | 0.0 | 0.00 | 0.07 | 0.07 | 66 | 1010.3 |
| 20260903022311 | 58 | 268 | 0.0 | 0.0 | 0.00 | 0.07 | 0.07 | 65 | 1010.4 |
| 20260903021810 | 59 | 266 | 0.0 | 1.0 | 0.00 | 0.07 | 0.07 | 62 | 1010.3 |
| 20260903021306 | 59 | 274 | 0.0 | 0.0 | 0.00 | 0.07 | 0.07 | 60 | 1010.0 |
| 20260903020806 | 60 | 280 | 2.0 | 2.0 | 0.00 | 0.07 | 0.07 | 58 | 1010.4 |
| 20260903020301 | 61 | 295 | 2.0 | 4.0 | 0.00 | 0.07 | 0.07 | 56 | 1010.2 |
| 20260903015756 | 62 | 273 | 2.0 | 6.0 | 0.00 | 0.07 | 0.07 | 56 | 1010.4 |
| 20260903015252 | 62 | 323 | 5.0 | 7.0 | 0.00 | 0.07 | 0.07 | 55 | 1010.2 |
| 20260903014747 | 62 | 252 | 4.0 | 7.0 | 0.00 | 0.07 | 0.07 | 56 | 1010.6 |
| 20260903014246 | 63 | 256 | 7.0 | 10.0 | 0.00 | 0.07 | 0.07 | 55 | 1010.5 |
| 20260903013742 | 63 | 277 | 6.0 | 13.0 | 0.00 | 0.07 | 0.07 | 54 | 1010.5 |
| 20260903013240 | 63 | 222 | 7.0 | 9.0 | 0.00 | 0.07 | 0.07 | 55 | 1010.6 |
| 20260903012740 | 63 | 216 | 9.0 | 13.0 | 0.00 | 0.07 | 0.07 | 55 | 1010.2 |
| 20260903012240 | 63 | 260 | 8.0 | 13.0 | 0.00 | 0.07 | 0.07 | 54 | 1010.2 |
| 20260903011734 | 63 | 252 | 9.0 | 14.0 | 0.00 | 0.07 | 0.07 | 54 | 1010.5 |
| 20260903011233 | 63 | 251 | 7.0 | 11.0 | 0.00 | 0.07 | 0.07 | 56 | 1010.6 |
| 20260903010729 | 63 | 218 | 11.0 | 17.0 | 0.00 | 0.07 | 0.07 | 55 | 1010.7 |
| 20260903010229 | 63 | 198 | 11.0 | 16.0 | 0.00 | 0.07 | 0.07 | 54 | 1010.6 |
| 20260903005728 | 62 | 180 | 9.0 | 11.0 | 0.00 | 0.07 | 0.07 | 61 | 1010.6 |
| 20260903005223 | 62 | 111 | 4.0 | 6.0 | 0.00 | 0.07 | 0.07 | 62 | 1010.6 |
| 20260903004719 | 62 | 155 | 6.0 | 8.0 | 0.00 | 0.07 | 0.07 | 58 | 1010.6 |
| 20260903003552 | 63 | 190 | 0.0 | 0.0 | 0.00 | 0.07 | 0.07 | 61 | 1010.0 |
| 20260903003047 | 63 | 190 | 0.0 | 0.0 | 0.00 | 0.07 | 0.07 | 61 | 1010.0 |
| 20260903002542 | 63 | 273 | 0.0 | 0.0 | 0.00 | 0.07 | 0.07 | 59 | 1009.7 |
| 20260903002036 | 63 | 353 | 6.0 | 8.0 | 0.00 | 0.07 | 0.07 | 58 | 1009.3 |
| 20260903001531 | 63 | 312 | 7.0 | 10.0 | 0.00 | 0.07 | 0.07 | 60 | 1009.0 |
| 20260903001031 | 64 | 325 | 3.0 | 4.0 | 0.00 | 0.07 | 0.07 | 57 | 1009.7 |
| 20260903000527 | 64 | 338 | 3.0 | 4.0 | 0.00 | 0.07 | 0.07 | 53 | 1009.4 |
| 20260903000025 | 65 | 337 | 6.0 | 7.0 | 0.00 | 0.07 | 0.07 | 51 | 1009.3 |
| 20260902235519 | 65 | 313 | 4.0 | 7.0 | 0.00 | 0.07 | 0.07 | 49 | 1010.0 |
| 20260902235015 | 65 | 264 | 7.0 | 8.0 | 0.00 | 0.07 | 0.07 | 49 | 1010.2 |
| 20260902234515 | 65 | 307 | 6.0 | 9.0 | 0.00 | 0.07 | 0.07 | 50 | 1009.8 |
| 20260902234013 | 64 | 325 | 9.0 | 10.0 | 0.00 | 0.07 | 0.07 | 51 | 1010.2 |
| 20260902233514 | 64 | 241 | 4.0 | 13.0 | 0.00 | 0.07 | 0.07 | 51 | 1010.6 |
| 20260902233009 | 64 | 290 | 6.0 | 10.0 | 0.00 | 0.07 | 0.07 | 52 | 1010.3 |
| 20260902232508 | 64 | 273 | 6.0 | 8.0 | 0.00 | 0.07 | 0.07 | 53 | 1010.8 |
| 20260902232002 | 63 | 213 | 10.0 | 22.0 | 0.00 | 0.07 | 0.07 | 52 | 1010.8 |
| 20260902231457 | 63 | 234 | 12.0 | 17.0 | 0.00 | 0.07 | 0.07 | 56 | 1011.2 |
| 20260902230952 | 63 | 262 | 10.0 | 14.0 | 0.00 | 0.07 | 0.07 | 57 | 1010.9 |
| 20260902230451 | 62 | 237 | 25.0 | 31.0 | 0.00 | 0.07 | 0.07 | 54 | 1010.7 |
| 20260902225950 | 62 | 230 | 15.0 | 27.0 | 0.07 | 0.07 | 0.07 | 59 | 1010.4 |
| 20260902225446 | 59 | 223 | 12.0 | 24.0 | 0.07 | 0.07 | 0.07 | 71 | 1010.3 |
| 20260902224945 | 60 | 250 | 19.0 | 26.0 | 0.00 | 0.06 | 0.06 | 73 | 1010.0 |
| 20260902224444 | 61 | 230 | 13.0 | 29.0 | 0.00 | 0.06 | 0.06 | 65 | 1009.8 |
| 20260902223941 | 62 | 227 | 26.0 | 34.0 | 0.00 | 0.06 | 0.06 | 61 | 1009.7 |
| 20260902223436 | 63 | 269 | 21.0 | 38.0 | 0.00 | 0.06 | 0.06 | 59 | 1009.4 |
| 20260902222936 | 66 | 244 | 26.0 | 39.0 | 0.17 | 0.06 | 0.06 | 54 | 1009.0 |
| 20260902222435 | 66 | 202 | 6.0 | 9.0 | 0.35 | 0.06 | 0.06 | 63 | 1006.5 |
| 20260902221934 | 70 | 178 | 11.0 | 16.0 | 0.19 | 0.03 | 0.03 | 59 | 1006.8 |
| 20260902221433 | 79 | 214 | 14.0 | 17.0 | 0.00 | 0.00 | 0.00 | 36 | 1006.7 |
| 20260902220929 | 82 | 256 | 4.0 | 6.0 | 0.00 | 0.00 | 0.00 | 26 | 1006.0 |
| 20260902220429 | 82 | 226 | 4.0 | 4.0 | 0.00 | 0.00 | 0.00 | 29 | 1005.9 |
| 20260902215924 | 83 | 212 | 5.0 | 7.0 | 0.00 | 0.00 | 0.00 | 28 | 1006.0 |
| 20260902215420 | 83 | 200 | 5.0 | 7.0 | 0.00 | 0.00 | 0.00 | 28 | 1005.8 |
| 20260902214916 | 84 | 220 | 6.0 | 10.0 | 0.00 | 0.00 | 0.00 | 28 | 1005.9 |
| 20260902214415 | 84 | 197 | 8.0 | 11.0 | 0.00 | 0.00 | 0.00 | 27 | 1006.2 |
| 20260902213915 | 85 | 240 | 6.0 | 11.0 | 0.00 | 0.00 | 0.00 | 28 | 1006.2 |
| 20260902213411 | 85 | 214 | 5.0 | 9.0 | 0.00 | 0.00 | 0.00 | 27 | 1006.1 |
| 20260902212909 | 86 | 215 | 7.0 | 8.0 | 0.00 | 0.00 | 0.00 | 26 | 1006.1 |
| 20260902212406 | 87 | 288 | 5.0 | 7.0 | 0.00 | 0.00 | 0.00 | 26 | 1005.9 |
| 20260902211902 | 88 | 227 | 7.0 | 10.0 | 0.00 | 0.00 | 0.00 | 25 | 1005.9 |
| 20260902211358 | 88 | 227 | 8.0 | 14.0 | 0.00 | 0.00 | 0.00 | 25 | 1006.1 |
| 20260902210853 | 87 | 228 | 6.0 | 8.0 | 0.00 | 0.00 | 0.00 | 26 | 1006.3 |
| 20260902210352 | 87 | 254 | 4.0 | 9.0 | 0.00 | 0.00 | 0.00 | 26 | 1006.3 |
| 20260902205851 | 87 | 220 | 8.0 | 14.0 | 0.00 | 0.00 | 0.00 | 25 | 1006.5 |
| 20260902205345 | 87 | 220 | 11.0 | 15.0 | 0.00 | 0.00 | 0.00 | 25 | 1006.4 |
| 20260902204841 | 86 | 208 | 8.0 | 13.0 | 0.00 | 0.00 | 0.00 | 26 | 1006.7 |
| 20260902204335 | 87 | 284 | 6.0 | 10.0 | 0.00 | 0.00 | 0.00 | 26 | 1006.8 |
| 20260902203831 | 86 | 238 | 5.0 | 15.0 | 0.00 | 0.00 | 0.00 | 26 | 1007.1 |
| 20260902203326 | 87 | 102 | 8.0 | 10.0 | 0.00 | 0.00 | 0.00 | 26 | 1007.1 |
| 20260902202826 | 87 | 192 | 10.0 | 11.0 | 0.00 | 0.00 | 0.00 | 26 | 1007.1 |
| 20260902202322 | 86 | 160 | 8.0 | 13.0 | 0.00 | 0.00 | 0.00 | 27 | 1007.2 |
| 20260902201819 | 86 | 207 | 8.0 | 9.0 | 0.00 | 0.00 | 0.00 | 27 | 1007.3 |
| 20260902201318 | 86 | 66 | 11.0 | 14.0 | 0.00 | 0.00 | 0.00 | 26 | 1007.4 |
| 20260902200813 | 86 | 201 | 8.0 | 11.0 | 0.00 | 0.00 | 0.00 | 26 | 1007.4 |
| 20260902200308 | 85 | 188 | 5.0 | 13.0 | 0.00 | 0.00 | 0.00 | 27 | 1007.5 |
| 20260902195804 | 82 | 174 | 6.0 | 10.0 | 0.00 | 0.00 | 0.00 | 29 | 1007.8 |
| 20260902195306 | 82 | 126 | 7.0 | 10.0 | 0.00 | 0.00 | 0.00 | 30 | 1007.9 |
| 20260902194758 | 82 | 174 | 3.0 | 3.0 | 0.00 | 0.00 | 0.00 | 30 | 1008.0 |
| 20260902194253 | 81 | 149 | 6.0 | 9.0 | 0.00 | 0.00 | 0.00 | 30 | 1008.1 |
| 20260902193748 | 82 | 122 | 6.0 | 8.0 | 0.00 | 0.00 | 0.00 | 30 | 1008.1 |
| 20260902193244 | 84 | 102 | 3.0 | 11.0 | 0.00 | 0.00 | 0.00 | 29 | 1008.0 |
| 20260902192742 | 82 | 87 | 2.0 | 8.0 | 0.00 | 0.00 | 0.00 | 30 | 1008.0 |
| 20260902192242 | 83 | 110 | 10.0 | 14.0 | 0.00 | 0.00 | 0.00 | 29 | 1008.2 |
| 20260902191736 | 83 | 184 | 8.0 | 9.0 | 0.00 | 0.00 | 0.00 | 29 | 1008.4 |
| 20260902191236 | 81 | 186 | 10.0 | 13.0 | 0.00 | 0.00 | 0.00 | 30 | 1008.3 |
| 20260902190731 | 80 | 125 | 5.0 | 9.0 | 0.00 | 0.00 | 0.00 | 31 | 1008.3 |
| 20260902190231 | 80 | 145 | 5.0 | 7.0 | 0.00 | 0.00 | 0.00 | 32 | 1008.3 |
| 20260902185727 | 80 | 167 | 7.0 | 8.0 | 0.00 | 0.00 | 0.00 | 32 | 1008.5 |
| 20260902185223 | 80 | 162 | 4.0 | 8.0 | 0.00 | 0.00 | 0.00 | 32 | 1008.6 |
| 20260902184718 | 79 | 206 | 2.0 | 9.0 | 0.00 | 0.00 | 0.00 | 34 | 1008.7 |
| 20260902184214 | 79 | 192 | 8.0 | 10.0 | 0.00 | 0.00 | 0.00 | 34 | 1009.0 |
| 20260902183709 | 79 | 230 | 5.0 | 8.0 | 0.00 | 0.00 | 0.00 | 34 | 1009.0 |
| 20260902183205 | 79 | 226 | 8.0 | 10.0 | 0.00 | 0.00 | 0.00 | 34 | 1009.0 |
| 20260902182701 | 78 | 184 | 4.0 | 7.0 | 0.00 | 0.00 | 0.00 | 35 | 1008.7 |
| 20260902182157 | 79 | 209 | 7.0 | 10.0 | 0.00 | 0.00 | 0.00 | 35 | 1009.2 |
| 20260902181653 | 79 | 171 | 6.0 | 9.0 | 0.00 | 0.00 | 0.00 | 34 | 1009.1 |
| 20260902181148 | 79 | 243 | 4.0 | 8.0 | 0.00 | 0.00 | 0.00 | 35 | 1009.3 |
| 20260902180647 | 79 | 197 | 9.0 | 11.0 | 0.00 | 0.00 | 0.00 | 33 | 1009.2 |
| 20260902180143 | 79 | 255 | 6.0 | 9.0 | 0.00 | 0.00 | 0.00 | 35 | 1009.3 |
| 20260902175643 | 79 | 230 | 5.0 | 7.0 | 0.00 | 0.00 | 0.00 | 35 | 1009.3 |
| 20260902175139 | 78 | 247 | 7.0 | 9.0 | 0.00 | 0.00 | 0.00 | 36 | 1009.3 |
| 20260902174635 | 78 | 198 | 4.0 | 7.0 | 0.00 | 0.00 | 0.00 | 36 | 1009.5 |
| 20260902174131 | 78 | 212 | 6.0 | 14.0 | 0.00 | 0.00 | 0.00 | 37 | 1009.4 |
| 20260902173626 | 77 | 216 | 9.0 | 10.0 | 0.00 | 0.00 | 0.00 | 38 | 1009.6 |
| 20260902173121 | 77 | 198 | 10.0 | 13.0 | 0.00 | 0.00 | 0.00 | 37 | 1009.6 |
| 20260902172620 | 78 | 192 | 10.0 | 13.0 | 0.00 | 0.00 | 0.00 | 37 | 1009.6 |
| 20260902172114 | 77 | 188 | 6.0 | 10.0 | 0.00 | 0.00 | 0.00 | 39 | 1009.7 |
| 20260902171610 | 78 | 192 | 7.0 | 11.0 | 0.00 | 0.00 | 0.00 | 38 | 1009.6 |
| 20260902171106 | 77 | 211 | 4.0 | 9.0 | 0.00 | 0.00 | 0.00 | 39 | 1009.8 |
| 20260902170601 | 76 | 199 | 7.0 | 10.0 | 0.00 | 0.00 | 0.00 | 39 | 1009.7 |
| 20260902170057 | 75 | 204 | 9.0 | 11.0 | 0.00 | 0.00 | 0.00 | 40 | 1009.8 |
| 20260902165556 | 75 | 193 | 10.0 | 11.0 | 0.00 | 0.00 | 0.00 | 41 | 1009.6 |
| 20260902165051 | 76 | 187 | 7.0 | 11.0 | 0.00 | 0.00 | 0.00 | 39 | 1009.7 |
| 20260902164546 | 76 | 182 | 5.0 | 10.0 | 0.00 | 0.00 | 0.00 | 40 | 1009.6 |
| 20260902164045 | 75 | 225 | 6.0 | 10.0 | 0.00 | 0.00 | 0.00 | 41 | 1009.8 |
| 20260902163541 | 74 | 200 | 4.0 | 8.0 | 0.00 | 0.00 | 0.00 | 43 | 1009.8 |
| 20260902163039 | 74 | 205 | 2.0 | 7.0 | 0.00 | 0.00 | 0.00 | 43 | 1009.9 |
| 20260902162539 | 73 | 104 | 5.0 | 6.0 | 0.00 | 0.00 | 0.00 | 43 | 1009.7 |
| 20260902162034 | 71 | 169 | 2.0 | 3.0 | 0.00 | 0.00 | 0.00 | 45 | 1010.0 |
| 20260902161529 | 72 | 198 | 2.0 | 4.0 | 0.00 | 0.00 | 0.00 | 45 | 1010.0 |
| 20260902161025 | 73 | 206 | 2.0 | 4.0 | 0.00 | 0.00 | 0.00 | 44 | 1010.0 |
| 20260902160521 | 71 | 224 | 0.0 | 0.0 | 0.00 | 0.00 | 0.00 | 45 | 1009.9 |
| 20260902160021 | 71 | 72 | 0.0 | 0.0 | 0.00 | 0.00 | 0.00 | 45 | 1009.9 |
| 20260902155514 | 70 | 105 | 1.0 | 2.0 | 0.00 | 0.00 | 0.00 | 46 | 1009.8 |
| 20260902155013 | 70 | 304 | 1.0 | 2.0 | 0.00 | 0.00 | 0.00 | 48 | 1009.9 |
| 20260902154508 | 69 | 63 | 2.0 | 3.0 | 0.00 | 0.00 | 0.00 | 48 | 1010.2 |
| 20260902154003 | 69 | 105 | 3.0 | 4.0 | 0.00 | 0.00 | 0.00 | 48 | 1010.2 |
| 20260902153501 | 68 | 132 | 2.0 | 3.0 | 0.00 | 0.00 | 0.00 | 49 | 1010.4 |
| 20260902152957 | 68 | 75 | 2.0 | 3.0 | 0.00 | 0.00 | 0.00 | 50 | 1010.3 |
| 20260902152454 | 69 | 76 | 2.0 | 4.0 | 0.00 | 0.00 | 0.00 | 49 | 1010.3 |
| 20260902151948 | 68 | 132 | 1.0 | 3.0 | 0.00 | 0.00 | 0.00 | 49 | 1010.6 |
| 20260902151445 | 69 | 167 | 1.0 | 2.0 | 0.00 | 0.00 | 0.00 | 48 | 1010.6 |
| 20260902150939 | 69 | 185 | 0.0 | 1.0 | 0.00 | 0.00 | 0.00 | 48 | 1010.7 |
| 20260902150435 | 68 | 121 | 1.0 | 2.0 | 0.00 | 0.00 | 0.00 | 49 | 1010.5 |